Theta_e
309 309 310 311 310 311 313 313 313 312 310 312 311 312 316 313 311 313 313 310 308 306 303 306 308 310 310 309 308 307 307 309 310 310 310 313 312 311 310 308 307 306 306 306 308 312 312 311 311 310 312 313 315 317 314 316 320 323 324 324 326 328 328 327 323 317 314 315 314 311 310 311 313 312 309 306 307 308 309 310 310 308 307 306 306 307 307 307
309 308 309 312 313 312 315 316 316 315 312 311 313 316 319 315 312 315 315 310 308 306 304 305 308 310 310 309 309 307 307 308 311 314 312 312 310 309 308 306 307 306 306 306 309 313 312 311 309 311 317 316 315 315 315 315 316 324 327 323 326 332 330 321 315 314 312 313 313 312 311 310 311 311 308 308 311 309 308 310 308 309 309 307 305 306 306 306
309 307 307 309 313 314 317 317 317 317 315 314 316 319 320 317 314 316 317 312 310 309 307 307 307 309 311 309 309 308 308 309 312 314 312 311 309 307 307 307 307 306 306 307 309 311 311 311 307 311 317 316 316 315 316 315 315 324 324 320 328 334 325 313 312 313 311 311 312 312 309 309 310 309 307 308 311 309 309 309 308 309 310 309 307 305 306 306
310 308 308 307 310 314 317 317 317 317 318 318 318 320 320 319 316 317 318 314 311 312 310 309 307 308 311 309 309 307 308 313 315 314 311 310 308 307 307 307 306 306 307 306 309 311 311 310 308 311 315 317 318 315 317 317 316 320 319 324 329 324 318 313 312 313 311 309 311 312 309 309 309 308 307 308 309 309 308 307 308 309 309 308 309 306 304 305
311 311 310 308 308 311 314 315 316 317 318 318 318 320 320 320 318 318 318 313 309 310 309 309 307 308 311 310 309 307 310 318 316 312 311 309 307 308 308 307 306 306 306 307 310 311 309 308 309 314 315 317 317 314 318 317 314 316 317 327 326 314 313 315 313 312 311 308 309 311 309 309 309 308 308 308 308 309 311 310 307 308 308 307 307 306 304 305
313 312 311 310 308 309 311 312 314 316 317 316 318 320 320 321 320 319 318 311 307 309 308 306 306 309 311 309 309 308 311 317 314 311 311 309 307 308 308 306 306 306 305 308 309 309 310 310 312 316 316 316 316 316 317 313 310 315 316 320 320 314 312 313 313 312 310 309 310 311 308 308 308 309 310 309 308 308 312 315 311 308 305 303 304 305 307 308
313 312 312 311 310 311 312 313 315 316 316 315 318 319 320 321 321 320 316 308 305 308 306 305 307 310 311 308 310 313 314 314 312 311 310 308 308 309 308 306 307 306 307 309 309 312 314 313 313 317 318 315 315 317 315 311 309 313 315 316 315 312 311 313 314 315 312 309 311 309 306 308 310 310 309 308 308 307 309 312 313 308 302 301 304 306 308 308
309 311 311 311 312 313 314 315 316 316 316 316 318 320 321 321 321 319 314 306 303 306 305 306 308 310 311 309 311 318 319 315 311 310 309 307 308 309 309 308 308 307 308 309 310 315 316 314 313 313 317 317 315 315 312 310 311 312 314 316 313 310 312 313 313 314 313 310 308 307 307 308 309 308 307 308 307 307 307 307 310 308 306 307 307 307 307 307
305 308 309 310 310 311 313 314 314 315 316 317 319 320 320 321 321 320 313 306 303 304 305 307 309 311 311 310 311 316 318 314 310 309 308 307 308 308 309 310 309 308 308 310 310 312 314 315 315 313 314 314 312 313 311 312 316 314 313 314 311 310 313 311 311 313 313 312 308 307 310 309 308 307 307 309 308 306 306 306 307 308 309 311 310 308 306 306
304 306 308 309 309 309 310 312 314 315 317 318 320 320 321 322 320 315 309 304 303 305 306 307 309 311 310 311 314 315 314 312 309 309 309 308 309 308 309 310 309 309 309 310 311 311 313 315 314 314 313 312 310 309 310 313 313 311 311 311 311 311 311 310 311 311 310 311 311 309 310 310 309 308 308 310 310 308 308 307 306 306 307 307 309 309 306 305
304 305 305 307 307 308 311 314 315 315 317 318 319 320 320 319 312 305 303 303 305 307 307 308 310 310 311 314 320 318 313 311 309 309 309 309 311 309 307 308 307 308 310 311 311 312 313 313 312 311 310 310 310 308 310 312 309 308 309 309 310 310 309 309 310 310 307 308 311 310 308 309 309 309 309 309 310 309 310 311 308 305 306 305 306 307 306 305
304 304 304 303 305 307 310 312 311 312 315 315 317 317 316 312 305 302 304 306 308 308 307 308 309 310 312 316 322 319 312 310 309 309 310 309 311 310 306 306 307 308 311 312 314 314 312 311 311 313 312 309 309 308 308 308 307 307 307 308 311 309 308 309 310 309 307 308 311 309 307 310 310 310 311 307 307 309 309 311 310 307 305 305 305 305 305 304
302 303 303 304 305 307 308 307 307 307 308 309 311 311 308 304 302 303 306 307 308 308 308 308 308 310 311 314 318 314 310 310 310 310 310 310 312 310 307 307 306 308 311 313 314 312 310 311 312 314 313 312 311 308 306 306 306 308 306 306 309 309 309 307 306 308 306 308 312 308 305 311 312 310 310 306 306 308 309 310 310 308 305 304 305 304 305 303
301 302 303 305 305 305 305 305 305 305 304 304 305 305 304 302 303 306 307 308 308 308 308 307 308 311 313 316 314 310 310 310 311 310 309 312 313 310 309 309 306 307 310 310 310 309 310 310 309 310 310 312 310 306 312 311 305 308 306 307 310 307 312 310 306 308 307 308 310 307 307 310 309 308 307 307 307 308 310 311 310 309 307 305 305 305 305 304
302 302 303 302 302 302 302 303 303 303 302 303 303 303 302 303 305 306 306 308 308 308 309 307 309 314 319 320 313 308 310 311 312 311 309 313 313 310 312 311 307 307 307 307 309 309 309 310 310 312 309 309 312 311 320 320 313 313 307 312 316 307 313 316 308 308 307 307 307 306 309 308 308 309 308 309 311 309 310 312 312 311 310 307 306 305 305 305
301 302 302 301 301 301 301 302 302 302 302 303 303 303 303 304 306 307 308 309 309 309 310 311 312 314 317 317 312 310 313 313 312 311 311 312 311 312 314 313 308 308 309 309 312 309 309 314 312 311 310 309 318 322 319 319 323 323 310 314 321 309 310 315 308 308 309 308 307 307 310 310 311 311 308 309 310 310 312 314 313 312 311 308 307 306 305 305
301 301 301 301 301 301 302 301 302 302 303 303 303 303 304 305 307 308 310 310 310 310 312 317 315 313 313 312 312 315 317 313 310 312 312 310 310 312 312 310 309 309 311 311 312 311 308 313 310 309 315 313 320 324 313 310 319 323 312 311 319 313 310 312 309 310 311 310 309 308 308 308 310 310 307 308 308 310 311 311 311 310 310 309 308 307 306 306
301 300 300 301 301 301 302 302 303 303 303 303 303 304 305 307 309 310 313 313 312 312 313 314 313 314 314 312 313 316 314 310 310 312 312 310 309 312 312 310 308 307 314 314 311 311 310 314 314 314 316 311 314 317 311 316 320 319 315 311 317 317 311 312 311 310 310 311 310 310 310 308 308 307 307 308 308 309 310 309 309 309 309 308 308 307 307 306
301 301 301 301 301 302 302 302 304 303 303 303 303 305 306 308 310 311 314 314 313 312 312 312 313 315 315 314 315 314 310 309 311 310 311 311 309 313 314 311 313 311 315 315 309 312 315 313 313 314 315 312 314 316 314 322 321 318 319 315 318 318 313 312 313 311 310 311 313 312 310 310 309 309 309 310 310 310 310 310 309 309 309 309 308 308 307 307
301 301 301 301 302 302 302 303 303 303 303 302 304 309 311 315 317 318 320 318 316 314 316 320 317 316 317 317 316 313 311 310 312 311 309 310 312 315 312 314 325 323 316 316 312 313 314 310 311 314 321 322 321 321 319 319 316 313 315 314 315 315 312 312 315 313 310 313 319 316 312 311 311 311 311 310 311 312 311 310 310 310 310 310 309 309 308 307
301 301 302 302 301 302 303 304 303 303 302 303 307 312 318 322 318 317 320 319 315 312 318 322 316 315 316 314 312 312 316 315 313 313 310 311 314 311 310 317 325 320 318 318 314 313 311 311 317 319 324 324 321 320 319 317 315 313 313 314 314 314 313 313 315 314 311 314 320 318 315 313 312 312 312 312 312 312 312 311 311 311 311 310 310 310 309 307
302 302 302 301 302 302 303 304 303 303 303 304 309 312 315 317 311 308 312 314 313 309 315 316 313 317 315 311 310 310 317 318 313 316 313 312 315 310 314 322 320 317 318 315 313 315 312 314 320 318 317 318 317 317 318 317 316 315 315 315 312 314 316 315 316 317 314 314 320 321 316 314 313 312 312 312 312 312 312 312 312 313 313 312 312 311 310 309
302 302 301 302 302 302 303 304 303 304 304 305 308 310 310 309 307 307 308 312 313 312 316 316 315 321 318 314 312 310 315 316 315 319 313 310 313 313 318 322 319 319 318 316 318 317 314 319 320 313 313 316 317 317 316 312 314 316 314 312 314 317 317 316 319 321 317 313 316 319 316 313 313 315 319 318 316 316 316 315 314 313 314 314 313 312 311 311
302 302 302 302 301 302 304 304 304 304 304 305 306 308 310 310 309 308 309 314 315 314 315 314 314 320 321 315 310 312 316 315 318 318 311 312 315 312 316 320 319 319 318 320 320 317 318 319 312 311 314 316 317 317 315 310 316 326 321 314 319 321 316 318 322 320 320 318 315 316 316 319 324 327 330 322 317 319 319 319 321 318 315 315 316 316 313 312
302 302 302 301 301 303 303 303 304 304 305 306 306 308 310 310 308 308 313 316 316 316 313 310 313 315 313 310 310 314 316 315 317 315 309 313 316 311 313 317 318 319 323 322 318 318 320 313 308 314 316 316 317 317 319 315 318 330 325 316 320 322 318 321 323 320 323 326 318 315 318 325 332 328 323 319 319 320 317 317 323 325 323 320 322 324 319 314
302 302 302 301 302 302 305 307 306 306 307 307 308 309 308 308 308 309 315 318 317 319 313 308 312 311 309 312 314 314 314 315 313 310 310 311 313 312 312 315 313 316 325 322 318 317 315 309 309 316 318 317 317 318 319 317 318 321 318 317 320 320 319 321 321 318 322 325 316 314 320 323 322 317 318 322 321 320 317 320 327 333 335 330 326 327 326 321
302 302 301 302 302 302 308 313 311 308 309 310 311 311 308 308 308 307 313 318 316 315 314 311 310 309 311 313 314 312 311 314 312 309 310 310 311 311 312 317 312 314 319 316 314 315 313 312 312 315 319 318 319 320 318 317 321 320 314 316 320 317 318 319 317 316 321 323 319 318 320 320 319 316 319 322 318 321 326 330 334 337 340 338 330 326 326 324
302 301 302 302 302 304 309 314 312 309 310 312 310 310 310 309 309 310 312 313 312 313 315 313 309 310 313 312 313 314 311 315 320 314 308 309 312 309 311 319 318 318 316 310 314 317 312 314 316 318 320 321 322 320 315 315 317 317 312 313 315 314 318 319 317 319 320 318 321 322 315 317 327 323 318 318 319 326 334 337 341 340 333 331 333 329 323 320
302 301 302 302 301 305 310 312 312 312 312 311 307 309 310 307 310 317 316 311 313 317 315 311 309 312 315 314 316 318 315 316 321 317 310 311 312 310 311 318 321 320 313 311 317 317 311 312 314 317 319 322 321 313 311 315 315 313 311 313 316 317 318 317 317 320 321 319 321 323 315 315 328 328 319 317 320 328 336 339 340 333 323 322 331 334 325 318
302 301 302 302 302 305 310 310 309 311 312 308 308 309 308 311 323 327 318 312 313 315 314 311 311 313 316 317 318 317 316 317 318 315 314 314 313 312 312 314 319 320 316 317 320 316 311 308 309 313 314 314 314 309 309 313 312 311 312 314 318 320 317 318 322 319 319 325 327 323 316 313 321 328 326 319 320 330 333 329 327 323 320 322 331 334 326 320
302 302 303 302 303 305 309 309 308 310 310 308 308 308 309 319 330 323 309 309 312 311 314 314 313 314 317 318 318 317 315 317 317 314 314 314 312 314 313 313 318 320 323 325 319 315 312 309 310 311 310 310 312 312 309 309 310 313 318 318 318 324 320 320 326 320 318 331 330 322 316 313 318 325 328 323 321 323 322 318 319 319 319 324 332 332 323 319
301 302 303 303 304 306 308 309 308 308 309 309 308 315 321 320 320 318 310 309 311 310 313 316 316 318 319 317 317 317 316 316 317 316 318 317 315 316 317 321 321 317 323 327 321 320 319 314 310 307 307 309 314 317 312 310 313 315 319 322 321 326 324 322 329 324 323 329 321 315 314 314 318 319 318 320 316 315 315 314 315 316 318 323 330 331 323 319
301 303 303 304 307 306 307 308 306 306 309 309 310 321 330 322 315 318 317 312 308 309 313 317 317 317 317 315 316 316 314 315 316 316 317 316 316 318 320 324 321 313 317 323 320 322 323 317 311 309 309 307 311 318 316 314 316 314 317 325 325 324 323 328 332 323 322 325 317 312 313 316 320 317 316 318 315 316 316 315 316 317 320 324 327 328 324 321
302 303 303 305 307 306 308 308 306 308 308 308 316 319 317 318 317 313 315 314 309 310 314 316 316 313 313 314 317 315 313 315 316 315 315 313 314 320 321 318 317 317 318 318 319 322 323 318 314 314 312 307 309 315 316 317 317 316 319 323 325 328 326 328 332 324 322 327 321 313 316 324 324 318 319 317 316 319 317 318 320 320 324 325 324 326 327 324
302 303 303 304 305 306 307 305 306 309 306 312 326 319 312 321 320 313 319 318 313 315 315 312 314 314 314 317 317 313 312 315 315 313 314 316 317 323 327 322 320 321 320 321 321 318 317 318 314 309 308 307 310 310 308 314 316 315 316 317 321 326 325 322 323 322 320 321 322 317 320 328 323 316 316 314 315 318 317 317 318 320 326 325 323 326 328 325
302 303 305 304 304 306 304 303 307 306 308 319 323 315 321 327 314 313 320 314 314 321 315 312 316 316 316 318 317 314 312 314 313 312 314 317 319 321 325 327 322 318 318 324 324 316 315 320 312 307 308 306 307 308 306 311 314 312 315 320 319 314 315 319 318 315 313 316 321 318 319 324 318 315 320 321 321 323 324 324 319 320 325 324 324 328 330 328
303 303 308 307 304 305 303 304 306 306 313 323 318 317 326 320 309 318 322 310 313 320 313 312 315 315 318 319 318 318 315 311 310 311 314 316 318 319 320 322 318 317 318 318 318 319 319 319 312 308 310 306 303 306 307 307 310 313 317 319 314 308 312 318 318 319 319 319 323 318 318 322 318 317 324 325 322 323 325 325 321 323 325 323 326 330 332 329
307 305 309 310 306 304 304 305 305 310 318 318 315 321 321 311 311 321 319 311 314 318 313 312 312 312 317 317 318 318 314 312 312 312 315 316 316 319 321 321 315 313 315 311 312 317 316 317 316 307 308 309 304 307 310 307 305 310 312 310 309 313 320 318 316 323 321 318 324 322 319 319 317 320 324 318 316 320 320 319 321 325 325 325 328 331 331 328
310 308 311 311 305 303 305 305 308 315 319 314 315 319 314 311 313 315 315 313 314 316 315 317 313 309 314 317 319 319 313 313 316 314 314 314 313 313 314 318 315 310 312 311 313 318 313 314 319 308 305 309 307 309 316 314 307 306 308 309 309 315 322 318 316 321 321 319 324 325 323 323 321 323 324 316 314 317 317 319 321 323 327 330 330 331 333 331
307 307 310 307 304 304 305 307 312 317 315 314 320 318 309 309 312 310 311 313 314 315 316 322 316 310 315 316 316 319 314 315 318 317 314 313 314 314 312 315 315 311 311 310 312 316 309 309 319 312 304 308 311 312 315 317 313 309 310 314 311 310 314 314 313 317 322 324 324 323 323 326 324 320 318 317 316 315 316 319 320 322 330 333 331 331 334 336
305 307 308 304 303 305 306 308 313 316 315 315 317 314 308 310 315 313 310 310 313 313 313 320 319 317 319 315 312 316 318 320 320 318 316 314 314 314 312 312 315 313 312 311 313 317 311 312 323 318 311 316 320 312 307 309 311 310 313 316 314 313 315 316 315 316 317 320 325 324 318 321 326 320 315 316 315 314 315 317 318 323 328 334 337 333 329 330
305 307 306 303 303 305 309 314 312 311 317 317 314 312 310 311 314 313 309 307 310 312 311 313 316 319 321 316 314 318 319 321 319 317 318 317 316 314 311 308 311 312 316 318 317 317 314 314 319 320 319 318 313 306 303 305 307 306 310 313 313 316 318 319 322 322 316 314 318 319 316 321 328 322 315 314 314 314 314 314 317 322 325 331 336 333 327 325
313 310 304 302 304 306 311 313 310 309 315 315 309 308 309 309 310 310 308 308 309 311 313 313 312 314 316 313 313 316 316 316 318 319 320 320 318 314 310 308 310 311 313 316 314 311 313 315 314 318 325 318 308 303 302 302 304 308 310 309 310 315 316 319 325 323 320 318 316 315 317 322 332 332 321 318 319 320 318 315 318 322 323 326 327 327 328 326
318 311 307 304 303 307 311 313 316 315 314 311 308 306 306 306 309 310 311 311 310 312 316 317 314 311 312 312 311 313 312 311 315 316 315 319 317 308 305 307 307 309 311 314 314 309 311 317 316 315 322 324 319 315 310 306 306 311 316 311 309 313 314 315 317 313 314 321 320 317 316 317 329 336 324 318 320 319 317 316 318 320 319 318 318 318 319 320
310 308 310 307 303 307 312 317 324 324 316 311 309 309 309 307 307 308 311 313 311 313 315 314 311 311 311 310 309 311 310 308 312 312 310 315 314 307 306 307 305 310 315 313 311 310 310 316 317 315 317 319 319 322 325 321 312 310 316 314 309 311 312 313 316 313 314 320 319 317 316 313 317 322 316 314 315 312 311 312 313 315 314 313 314 314 315 316
307 308 309 307 307 310 310 311 317 322 320 314 309 311 311 308 307 304 306 309 309 311 312 309 309 312 311 308 310 313 310 306 307 309 311 315 316 310 305 306 307 311 314 311 309 311 314 315 315 318 319 317 314 317 321 319 315 315 318 315 311 309 310 314 318 317 316 317 315 315 315 313 313 314 312 312 311 310 311 310 310 311 312 313 314 313 314 315
305 310 313 310 309 309 309 309 310 313 316 313 311 313 311 308 308 304 303 305 305 307 310 308 309 312 311 309 311 312 310 307 306 307 311 314 315 310 303 304 307 308 309 309 308 311 315 314 313 314 314 314 313 314 314 313 315 320 320 318 315 310 309 312 315 315 316 316 315 313 313 313 312 312 311 311 311 310 311 310 310 311 311 312 313 314 315 315
302 310 314 308 308 310 308 310 311 310 311 310 311 312 310 310 311 308 306 303 302 305 308 308 309 313 314 313 311 311 309 308 308 310 311 311 310 308 306 304 304 304 306 307 306 311 317 317 316 313 312 314 313 311 313 312 313 317 318 319 319 313 310 311 312 313 314 314 314 313 314 313 311 310 310 310 310 310 310 310 310 311 312 312 314 315 316 316
301 307 305 300 307 315 311 310 311 309 309 309 310 311 311 313 313 311 309 306 305 306 307 309 314 314 312 310 310 312 311 309 310 311 312 312 309 309 312 310 305 302 305 306 306 309 314 317 317 312 310 314 313 311 313 312 312 314 314 316 317 315 312 312 311 312 312 312 312 312 313 312 310 310 310 309 309 310 309 309 309 309 310 311 312 312 311 311
302 307 307 302 305 309 309 311 310 307 306 307 309 310 310 313 314 310 308 308 309 308 303 308 315 313 309 309 309 310 312 313 311 309 309 311 309 310 314 315 312 305 302 306 306 304 307 315 316 311 311 316 314 311 311 311 310 311 312 313 313 312 311 311 310 310 310 310 311 310 311 310 309 309 309 309 309 309 308 308 308 308 308 308 309 309 308 308
299 301 305 308 308 307 309 312 310 309 308 307 308 309 308 311 313 310 308 309 310 311 309 311 313 310 307 307 309 310 310 312 311 311 313 314 311 312 312 311 315 312 305 305 307 304 305 311 312 308 311 319 317 309 307 307 306 305 309 312 312 310 311 310 310 309 310 310 311 310 310 310 308 308 309 308 309 308 308 308 307 307 308 308 308 308 308 308
299 298 300 305 310 310 309 311 310 310 310 309 308 308 307 309 311 309 308 309 308 309 312 313 310 309 310 312 312 311 308 308 310 313 315 313 311 313 312 308 312 316 310 305 306 307 307 310 314 310 310 318 318 309 306 306 305 305 307 309 310 310 309 310 309 309 309 309 310 311 310 309 309 309 309 309 309 308 308 308 308 308 308 308 308 309 309 308
Wind_Speed
5 5 4 5 5 3 2 2 1 2 2 3 2 4 6 6 6 4 6 11 12 15 17 15 14 15 15 12 11 9 4 3 3 1 2 3 4 5 8 10 11 9 8 7 7 5 2 2 2 1 4 2 1 2 2 1 2 2 3 2 3 4 4 5 5 5 3 3 4 4 3 6 4 4 1 2 2 3 4 5 5 5 6 7 5 3 8 19
5 6 5 5 7 6 4 4 3 3 3 3 3 4 6 7 7 5 7 12 13 15 17 16 15 16 17 14 9 7 5 2 2 2 4 4 5 7 9 10 10 8 6 6 6 4 1 0 3 4 4 2 1 1 1 1 2 2 3 2 5 5 5 5 5 5 3 2 4 4 3 6 5 3 1 2 5 4 5 7 5 7 11 10 4 7 15 21
6 6 6 6 7 8 7 5 4 5 4 4 4 5 5 7 7 6 7 11 12 13 16 16 16 16 16 15 8 5 5 2 1 2 5 5 6 9 9 9 9 7 5 5 6 4 1 1 1 4 4 1 1 2 2 1 1 2 3 3 6 6 5 4 5 6 4 3 2 4 2 3 5 3 1 3 6 5 8 8 5 9 13 12 6 10 16 20
7 7 7 6 7 8 8 6 5 5 5 6 7 6 6 6 8 8 7 10 11 11 12 14 16 16 15 15 8 5 5 1 1 2 3 3 7 9 8 8 7 5 4 5 7 5 3 1 1 3 4 1 2 3 2 2 1 2 3 5 6 4 3 6 6 6 5 3 2 3 0 3 5 2 2 3 4 9 10 10 10 13 14 12 8 10 14 17
8 8 8 7 8 9 8 8 7 6 7 8 8 8 8 6 8 9 8 10 11 11 11 12 14 14 15 14 7 6 4 2 1 3 1 5 7 8 8 6 4 4 4 5 7 5 3 0 3 3 3 1 1 3 3 4 3 1 3 6 5 4 3 7 6 5 4 2 1 2 1 4 2 1 5 6 6 9 7 9 13 14 13 10 10 11 12 13
8 9 9 8 8 8 8 7 7 7 9 10 9 9 9 8 8 9 9 9 9 11 12 12 13 12 14 12 6 4 1 0 2 3 3 5 6 8 6 4 3 4 3 4 6 3 1 2 4 2 2 1 2 3 5 3 2 2 3 3 4 5 4 4 4 4 4 4 3 4 3 2 2 5 5 9 15 13 6 6 9 12 12 11 11 11 11 13
9 9 9 9 9 8 8 8 8 9 10 11 10 9 9 9 9 9 9 9 9 10 10 11 13 11 12 9 4 3 1 2 2 1 4 4 5 6 4 3 3 3 3 4 3 2 2 4 2 3 4 1 3 4 4 2 2 3 4 4 4 4 5 5 4 5 6 6 6 2 2 1 4 6 2 8 18 16 10 7 6 8 8 8 9 11 13 15
9 9 9 9 9 8 9 9 9 10 10 10 10 9 9 9 9 9 10 10 10 10 9 9 10 10 10 6 1 3 2 2 1 1 4 2 4 5 3 3 3 3 3 3 1 2 2 3 1 3 3 1 4 3 1 1 2 3 5 4 2 2 6 5 4 5 5 6 4 2 5 6 8 3 5 16 19 13 12 10 8 6 4 6 9 12 13 13
9 9 9 9 9 9 10 11 10 10 11 11 10 9 9 9 8 9 10 11 11 10 9 8 8 9 9 3 3 2 3 1 0 2 4 2 4 4 3 4 3 3 4 2 0 3 2 1 2 2 3 2 3 2 1 2 2 4 5 3 2 4 6 3 4 5 5 4 1 2 8 7 6 3 8 20 19 11 9 10 10 8 7 8 8 10 12 13
9 10 9 9 10 10 10 11 11 11 11 11 10 9 8 8 9 10 10 10 10 9 8 7 7 7 6 2 5 1 2 1 2 3 4 3 4 4 3 4 4 4 4 3 2 3 3 3 3 4 4 2 2 2 2 4 3 3 3 3 4 6 6 2 5 5 2 3 3 5 9 7 4 2 7 13 8 4 5 8 10 8 11 11 8 8 10 11
10 10 10 10 11 12 11 11 11 10 10 11 10 9 8 8 9 9 8 8 8 7 7 5 5 5 3 3 4 2 2 2 3 3 4 3 3 4 3 2 4 5 5 4 3 3 4 5 5 5 2 1 1 1 1 4 2 1 1 5 7 6 6 4 6 5 2 3 5 7 8 8 1 1 13 13 1 2 4 8 9 9 12 11 10 9 7 9
12 11 11 11 12 12 11 11 11 10 10 11 10 9 9 9 8 7 6 6 6 5 5 4 4 3 2 3 2 4 2 2 3 4 5 4 3 6 7 3 2 4 5 3 4 3 4 3 5 5 1 2 1 1 2 2 1 1 1 4 8 7 6 7 6 4 5 3 5 6 6 8 4 10 20 12 4 3 4 7 8 9 10 9 9 8 7 9
13 12 12 12 12 12 11 11 10 10 10 10 10 10 9 8 7 6 5 5 6 5 5 4 3 2 2 1 3 4 2 1 2 4 5 4 2 6 9 5 1 3 3 3 5 4 3 3 6 5 2 4 1 1 1 1 2 2 1 1 5 7 6 7 1 4 6 3 5 4 5 8 8 14 18 8 4 5 7 9 8 7 8 8 8 7 8 9
13 13 12 12 13 12 11 11 10 10 10 10 10 9 8 7 5 5 5 6 7 6 4 3 3 1 2 2 3 4 3 1 2 5 5 3 2 4 8 7 2 3 3 3 5 4 4 5 7 6 2 3 1 1 3 4 3 1 2 1 2 2 5 7 1 6 5 2 4 5 3 9 9 12 13 7 4 4 7 11 8 7 7 7 7 7 9 9
12 13 13 13 13 11 10 10 9 9 9 9 9 8 7 5 5 5 6 7 5 4 4 4 4 2 2 3 2 4 4 1 3 6 6 3 2 2 6 6 3 3 4 4 7 7 7 7 7 5 1 2 3 2 3 4 3 2 2 3 2 2 5 8 1 7 4 0 2 5 3 9 11 13 9 3 0 5 7 10 8 8 8 7 7 7 9 9
11 12 13 13 11 9 8 8 8 8 8 8 7 6 5 4 5 5 5 4 2 2 4 2 5 4 1 3 2 2 1 1 3 5 5 3 3 3 4 3 3 4 6 7 9 9 7 6 4 2 2 2 4 4 3 4 4 3 1 4 3 3 4 7 2 3 2 1 1 4 3 6 8 9 7 3 3 1 6 10 10 10 9 8 7 7 8 8
8 10 12 11 9 7 8 8 7 6 6 6 5 5 5 4 4 2 1 1 1 3 4 2 4 4 0 1 1 1 1 2 4 4 3 3 3 4 4 2 3 4 7 7 7 5 6 5 1 0 3 3 3 5 2 3 4 4 1 3 4 3 3 4 3 2 0 1 3 4 5 10 12 11 11 8 5 5 9 13 13 10 9 9 7 7 8 8
7 8 9 8 7 7 8 8 6 5 5 5 4 5 5 3 2 1 1 2 2 2 2 2 2 2 1 1 1 1 1 2 2 3 3 1 2 3 3 3 2 4 6 5 4 3 4 4 2 1 3 3 2 5 3 5 4 2 2 2 3 3 3 4 4 1 2 2 4 4 6 14 17 16 15 12 8 8 13 15 13 11 10 9 8 9 9 9
6 7 7 7 7 7 7 7 5 5 5 4 4 5 3 2 2 2 1 2 2 1 2 3 3 3 2 1 1 1 0 1 1 2 2 2 1 1 3 3 4 4 4 3 3 2 2 3 4 1 2 2 3 5 7 7 5 4 4 4 2 4 4 5 5 3 3 2 5 7 9 13 16 17 17 12 7 9 14 14 12 11 10 9 8 9 10 10
6 6 6 6 6 7 7 6 5 6 5 5 6 4 1 0 1 2 1 1 3 3 1 2 3 1 2 2 2 1 1 0 1 1 4 3 1 2 3 4 5 5 3 2 1 2 3 3 2 5 6 6 6 7 7 5 4 3 2 2 3 4 5 6 4 4 1 1 7 8 9 13 14 17 18 13 8 10 13 13 13 12 11 9 10 11 11 12
5 5 5 6 6 7 6 6 5 6 5 7 8 4 2 3 2 1 3 2 2 3 1 2 2 1 1 2 3 2 1 1 1 1 4 5 2 3 1 3 5 3 2 2 2 3 4 3 6 7 8 6 4 4 4 3 3 1 2 3 4 3 6 6 3 4 2 0 6 6 8 13 14 16 17 13 11 12 12 12 13 14 12 9 10 12 12 9
5 5 5 5 6 6 6 6 5 5 6 8 7 3 2 3 3 1 1 1 2 2 3 2 1 2 2 2 2 2 3 2 3 3 4 5 2 1 1 4 5 2 2 2 3 4 3 3 8 7 5 3 1 1 3 3 3 2 2 1 4 3 4 6 3 4 3 1 5 7 9 14 16 15 16 14 12 12 10 10 12 12 11 10 9 10 10 8
5 5 5 5 5 5 6 6 5 6 8 8 6 4 2 3 4 2 3 1 3 2 3 2 1 1 2 2 1 3 3 0 2 3 5 4 2 1 3 5 4 2 2 3 4 2 0 5 6 3 1 2 1 1 2 2 1 2 3 2 4 3 2 3 4 5 3 2 4 8 9 12 13 10 11 11 9 8 8 8 11 10 11 12 9 8 8 9
4 4 4 4 5 5 6 7 6 6 8 8 7 6 4 4 3 1 2 1 3 2 1 1 2 2 2 1 1 3 2 2 2 2 5 3 2 1 3 4 4 2 1 3 6 4 5 4 1 2 3 3 3 2 2 4 2 3 4 5 4 3 3 4 4 6 5 2 3 6 8 8 6 4 8 8 4 5 6 5 9 9 9 10 8 8 8 9
3 4 4 4 5 7 7 6 6 6 8 7 7 9 8 6 4 1 2 2 3 4 2 1 1 1 2 2 1 2 1 1 2 2 4 2 3 1 1 1 3 2 4 4 6 3 6 4 2 3 2 2 3 3 4 6 2 5 4 7 6 4 3 3 5 6 5 4 3 4 5 6 5 4 8 7 6 8 6 5 10 9 6 7 7 8 8 8
4 4 4 4 6 9 7 3 4 6 6 5 6 9 9 7 5 5 4 4 2 4 2 0 0 0 1 0 1 2 1 3 2 1 3 2 1 1 2 0 1 2 4 5 3 2 2 1 3 4 3 3 2 4 6 6 4 3 3 4 6 5 3 1 4 4 1 4 3 3 2 6 8 6 8 6 8 12 9 6 8 7 6 6 6 7 7 6
4 4 4 5 8 11 6 2 6 7 3 4 5 7 7 5 6 6 3 5 2 2 1 0 1 2 2 1 1 3 0 2 2 2 2 1 1 2 2 2 0 1 2 4 1 2 2 2 3 3 4 3 3 4 5 7 7 3 4 5 5 4 2 2 3 1 3 4 4 2 3 3 8 6 6 6 9 12 9 8 7 6 5 6 7 7 7 6
3 4 5 6 11 13 6 3 7 6 2 2 3 6 6 6 7 4 4 2 1 1 2 1 1 3 2 0 2 2 2 1 2 1 2 2 1 3 1 4 5 3 2 5 3 4 2 3 4 4 4 2 5 4 3 6 4 3 4 5 4 4 3 4 4 1 2 3 5 3 3 2 7 8 5 5 8 9 8 7 7 6 7 7 8 8 7 6
3 4 5 7 12 13 7 5 6 5 3 1 1 4 7 8 5 3 4 1 1 1 1 0 2 1 1 1 1 1 0 0 1 2 1 1 1 3 1 4 6 4 1 4 4 4 1 4 6 6 4 4 5 3 2 3 1 2 4 4 4 4 3 4 4 2 2 3 4 5 4 2 5 8 6 3 3 6 7 7 7 7 7 8 9 8 7 6
3 4 5 8 12 12 7 5 6 5 3 1 1 6 8 4 2 6 3 1 1 1 1 1 0 1 3 3 2 2 1 1 1 1 1 1 2 4 1 3 5 5 0 2 1 3 2 2 3 3 3 4 3 2 1 2 1 2 4 4 5 4 4 3 2 3 3 2 6 6 4 2 2 7 6 3 4 5 4 6 8 8 9 9 8 6 6 5
4 4 6 10 11 11 7 3 6 7 4 2 6 9 5 3 4 5 0 2 1 2 2 2 2 2 2 1 2 2 1 2 1 1 1 1 2 3 2 2 3 3 3 4 2 3 3 1 2 2 1 3 4 2 1 1 1 2 3 3 3 4 3 3 4 3 2 4 6 4 3 3 2 6 6 5 6 5 5 6 9 11 10 9 8 6 5 6
4 4 7 11 11 12 8 1 2 4 5 8 9 5 5 4 2 1 2 3 2 1 1 1 2 0 1 0 1 2 0 1 1 2 2 1 1 2 2 3 4 0 3 3 3 3 2 3 2 1 1 3 4 3 2 4 4 4 3 3 3 3 3 3 3 1 2 5 4 1 1 2 5 9 11 12 13 10 8 8 9 11 10 8 8 7 5 5
5 4 8 11 10 10 9 3 1 3 9 12 7 4 6 4 1 3 2 1 0 1 0 1 0 1 2 1 2 2 1 1 1 1 1 1 0 3 4 4 5 2 2 3 2 2 3 3 1 1 1 1 4 4 1 1 1 3 4 4 3 2 2 2 4 2 3 4 3 2 1 2 5 7 11 14 15 12 8 8 9 10 9 8 7 6 5 5
4 5 7 10 10 9 10 5 1 6 12 10 5 4 5 1 4 3 2 3 2 1 1 1 1 1 2 1 3 1 1 2 1 2 0 1 0 3 4 5 4 4 2 1 2 2 1 3 1 2 1 1 2 3 3 3 3 3 4 5 4 4 4 3 4 3 4 3 3 3 1 3 4 4 8 10 10 9 8 8 7 7 8 6 6 6 6 6
5 5 6 8 10 9 10 7 4 10 11 5 6 5 3 3 4 2 3 4 2 0 0 1 3 2 1 3 3 1 2 2 1 3 1 2 3 3 3 5 6 5 4 2 3 1 2 4 2 1 0 2 1 2 2 3 2 2 2 4 2 4 4 2 3 4 3 2 3 2 3 5 4 8 13 8 7 8 7 7 6 7 7 5 6 7 5 6
6 5 5 6 8 9 10 8 8 11 7 5 6 2 4 4 3 3 4 2 2 4 2 1 2 2 2 3 2 1 0 0 1 1 2 3 4 4 4 4 6 7 5 4 3 1 1 4 3 3 0 2 1 2 1 1 2 1 2 2 4 3 5 2 2 1 3 0 4 1 3 6 4 8 12 7 7 8 6 6 6 7 7 6 6 7 6 6
6 5 3 4 5 7 9 8 11 10 3 6 4 4 5 4 4 4 3 1 2 4 5 1 1 2 2 2 2 2 0 0 1 1 2 3 3 4 5 3 3 7 6 4 2 2 3 3 3 1 1 2 2 1 1 1 2 3 2 4 3 1 4 3 1 4 3 2 4 2 4 5 3 5 7 8 8 9 9 6 6 7 6 6 8 7 7 7
5 3 2 3 4 4 6 9 11 7 4 5 2 4 3 3 2 3 3 2 2 4 4 2 3 2 2 2 2 2 2 1 1 1 2 2 3 4 5 2 0 1 3 3 1 2 3 2 4 1 1 4 3 1 2 2 1 2 2 2 1 2 1 1 2 1 1 3 4 4 4 4 4 5 6 8 8 9 11 9 8 8 7 7 8 8 8 7
4 2 1 2 4 3 7 11 9 5 5 3 4 3 3 3 3 2 2 2 3 3 3 4 2 1 2 4 2 2 3 3 3 2 2 2 2 2 3 2 1 2 3 2 3 2 3 1 4 2 1 3 3 1 3 1 1 2 2 3 1 3 3 2 2 3 2 2 3 5 5 3 6 6 5 11 11 8 10 9 8 9 8 7 8 7 7 7
3 1 1 2 4 6 10 10 4 4 3 4 5 3 2 3 3 2 2 1 1 2 2 3 2 1 3 4 3 2 2 3 4 2 2 2 2 3 1 1 3 1 3 3 2 1 2 1 4 3 3 2 1 3 5 5 3 2 1 2 1 1 2 1 2 2 4 2 2 3 5 5 6 5 7 13 13 9 9 8 8 9 8 7 8 7 7 6
2 2 2 1 5 10 11 6 2 3 3 2 3 3 2 1 1 1 3 1 0 0 1 3 4 3 3 3 3 3 3 2 4 3 3 3 2 3 1 1 4 4 2 3 0 2 1 2 3 1 2 3 5 5 3 4 4 5 5 4 4 4 3 1 4 2 2 3 4 3 6 7 5 4 8 11 11 8 8 8 8 8 8 8 7 7 7 7
4 2 2 1 6 10 8 4 1 2 3 3 3 2 1 1 2 1 1 1 0 0 1 1 3 3 4 3 3 4 4 2 3 3 3 5 5 5 2 1 3 4 5 2 3 3 3 3 2 3 4 5 6 5 1 3 3 3 3 3 3 4 5 5 4 3 1 2 2 2 4 7 6 6 7 9 9 8 6 7 7 8 8 8 8 8 7 7
3 3 1 2 5 7 6 2 3 1 2 4 2 1 1 1 2 1 1 1 1 1 0 1 3 3 3 3 2 3 4 3 5 5 4 4 5 4 1 0 2 4 5 2 3 2 2 3 1 4 4 2 4 4 1 1 2 1 3 4 5 4 4 5 5 3 2 2 2 1 5 7 7 7 6 6 7 7 6 6 7 8 8 7 8 9 7 7
3 3 1 2 4 5 3 3 4 3 5 3 2 1 1 1 3 3 3 4 3 3 2 2 3 3 2 2 3 4 5 3 4 5 3 3 3 2 3 3 2 2 2 2 2 2 2 2 2 1 4 5 6 5 4 3 1 3 4 3 5 5 4 3 2 3 2 5 7 4 7 9 7 6 7 8 9 9 8 7 7 7 8 8 8 8 7 8
2 1 1 2 1 3 3 5 5 4 4 2 1 3 1 1 2 3 4 4 2 4 3 2 1 1 2 2 1 2 4 2 2 3 1 2 3 2 2 3 2 1 2 2 0 0 2 2 4 3 3 4 4 3 3 3 2 3 3 3 6 8 8 4 2 3 3 6 7 6 9 10 7 8 11 12 12 12 12 10 7 7 8 9 8 8 8 9
3 1 2 3 4 2 2 1 4 4 3 4 2 3 4 4 3 0 3 3 2 3 1 1 1 3 2 2 1 3 4 2 1 1 1 3 3 1 1 2 2 1 3 1 1 2 2 2 4 6 7 8 7 7 4 4 3 3 4 4 6 8 8 5 3 4 5 3 4 8 14 14 10 12 16 16 16 16 16 13 9 7 9 9 9 10 9 9
3 2 3 1 2 1 2 2 2 3 3 5 4 3 6 5 2 1 2 2 1 1 1 0 2 3 3 4 3 3 3 1 2 1 3 4 3 2 2 1 2 0 1 0 0 3 4 3 6 7 9 11 9 6 3 3 3 6 5 5 6 7 7 7 6 7 3 1 6 11 13 13 13 15 19 21 20 19 18 14 9 7 9 8 8 10 10 10
2 2 3 4 2 3 4 4 6 6 5 5 4 3 4 4 3 3 3 1 2 1 3 1 3 7 8 7 5 3 1 1 2 4 3 2 2 2 2 0 1 2 1 0 1 3 4 4 5 5 8 13 11 7 4 4 4 5 6 7 8 8 9 10 13 12 6 6 14 11 9 13 14 16 20 22 22 21 20 15 8 7 7 6 7 9 10 10
2 1 2 1 2 5 4 3 7 9 8 5 3 4 6 7 7 5 2 3 1 4 4 3 7 11 10 7 6 5 4 4 4 6 4 2 2 2 0 2 1 2 2 1 1 1 4 4 4 3 6 12 13 9 7 7 6 6 8 10 9 10 13 14 15 17 15 16 18 16 18 19 16 18 21 22 21 19 16 15 12 10 10 9 9 11 12 13
2 2 2 2 1 3 1 2 5 7 6 4 4 5 5 8 9 6 2 6 5 3 4 7 11 9 8 8 8 7 9 10 8 6 6 5 2 2 3 3 2 2 2 2 1 1 2 3 1 3 2 10 11 6 5 6 7 7 8 10 11 10 10 11 14 16 14 15 19 21 21 17 17 22 23 21 20 17 16 19 18 13 12 11 12 12 13 15
2 2 2 5 2 3 3 3 5 5 3 4 6 5 4 9 12 8 4 7 10 8 9 13 12 5 5 7 10 13 13 12 11 8 9 8 5 5 5 3 6 5 2 2 1 1 2 3 2 4 1 8 6 4 2 1 1 4 7 12 16 13 10 13 14 13 13 16 19 17 13 13 18 21 17 14 15 16 18 18 14 11 11 11 11 12 13 14
2 3 2 4 2 4 5 4 4 4 4 5 7 7 6 8 9 8 4 6 8 10 11 12 9 5 4 7 13 17 16 13 10 7 7 5 3 3 3 3 7 7 6 5 2 2 5 3 0 2 2 7 6 3 3 4 4 4 8 15 20 17 14 15 13 11 16 17 13 11 13 16 17 13 10 12 15 15 14 12 9 11 11 10 10 12 14 15
Wind_Direction
212 237 223 199 205 197 188 206 244 248 283 341 337 305 309 328 359 2 338 354 354 351 356 357 5 10 6 3 9 17 26 55 61 119 226 255 250 264 281 288 293 293 286 286 285 279 266 229 273 92 133 138 138 159 173 150 76 77 116 175 227 194 203 194 193 198 174 250 258 270 208 176 259 286 284 329 306 271 270 273 256 272 262 237 263 258 169 167
217 240 241 219 221 223 222 224 252 259 259 315 316 297 306 315 344 3 345 353 353 351 353 351 2 8 3 358 357 10 5 3 14 295 252 252 267 282 291 294 293 289 278 274 263 248 172 206 346 43 103 138 219 100 146 198 107 137 134 187 228 200 215 205 188 196 176 225 242 266 215 179 222 232 80 258 274 297 265 268 257 261 265 262 257 164 163 165
224 239 249 236 231 236 237 233 253 266 265 293 295 296 311 313 332 351 347 351 355 356 348 341 354 1 358 352 344 350 338 314 24 268 232 240 282 298 303 300 289 280 265 250 248 248 213 224 350 51 80 123 246 95 128 224 167 182 141 212 242 214 230 240 200 198 204 197 218 273 231 183 233 210 123 234 269 281 238 242 230 236 247 243 218 172 168 166
229 240 252 253 245 240 243 249 263 283 296 296 291 296 304 307 323 335 346 353 355 354 341 337 348 351 350 348 338 322 325 16 134 202 202 269 303 312 313 303 288 269 243 233 241 254 272 272 83 80 93 181 304 78 158 233 191 182 160 205 236 192 234 250 208 200 208 180 186 245 343 263 259 205 200 194 273 273 238 227 218 224 234 223 205 188 179 174
229 243 255 261 256 249 249 255 266 290 300 294 293 298 302 308 322 330 344 351 349 344 338 340 343 342 341 343 334 311 331 51 221 197 224 314 312 318 315 304 286 245 215 227 242 245 265 305 84 73 87 162 343 71 220 232 147 183 209 204 206 157 231 252 209 205 194 149 209 206 217 258 276 239 217 184 224 251 223 218 218 223 234 213 192 190 185 186
229 243 255 263 264 262 259 258 268 281 290 295 299 300 303 311 319 326 336 341 342 339 337 338 335 336 340 338 322 306 339 120 219 188 298 315 319 320 307 286 250 224 207 230 244 226 197 55 70 89 89 141 163 170 242 265 115 220 256 241 226 184 212 239 190 208 178 146 211 204 225 260 344 280 232 198 227 237 213 201 205 221 234 213 187 183 187 195
232 241 253 262 265 269 268 265 267 272 284 294 297 297 297 303 310 315 323 330 334 333 333 335 329 332 344 343 316 326 46 244 219 195 304 319 326 314 278 247 213 213 222 235 246 173 110 69 82 140 102 79 191 200 244 332 56 206 249 283 256 201 210 217 182 192 175 189 220 208 325 255 238 269 297 230 237 240 240 229 209 231 235 200 180 186 195 199
234 240 249 259 262 266 269 267 266 271 282 289 291 292 289 293 299 305 316 325 327 323 327 337 329 332 344 348 345 353 342 255 209 280 303 324 323 307 249 222 199 202 206 236 267 161 124 81 177 158 106 206 181 180 228 35 20 215 227 261 264 215 235 230 196 199 196 219 241 343 290 246 231 262 309 261 251 245 241 241 238 248 238 187 188 197 200 203
238 241 245 253 256 258 260 265 270 273 281 284 287 290 293 299 301 302 308 314 318 315 324 337 329 337 340 350 85 10 291 241 50 310 322 350 336 318 262 230 216 215 188 209 267 151 139 131 225 174 161 194 164 165 139 149 247 227 211 250 271 265 266 229 215 230 222 237 170 257 268 266 256 285 278 259 257 257 234 233 237 229 227 215 205 201 199 206
241 241 243 248 255 260 262 268 274 275 278 280 282 285 289 292 290 294 296 301 310 312 321 328 328 343 339 21 82 33 268 7 354 329 346 354 350 338 273 242 239 232 194 162 143 130 129 169 168 131 139 121 127 131 120 161 205 215 200 268 258 263 281 195 225 249 218 247 177 206 265 279 287 333 265 252 256 259 207 227 236 218 228 226 218 213 203 207
245 242 243 247 254 261 263 268 273 274 274 273 275 278 280 277 277 286 291 295 305 314 318 311 326 340 342 71 99 196 257 346 318 336 348 339 357 5 356 282 238 220 198 140 130 129 124 161 136 104 118 116 127 49 218 196 178 198 239 295 277 287 296 219 237 253 175 252 191 185 269 281 320 218 244 248 294 80 183 233 240 220 233 229 224 225 209 215
248 245 246 248 252 257 261 264 268 270 269 270 272 274 276 275 277 285 295 303 307 318 309 297 315 319 14 63 152 216 267 307 293 333 340 330 358 13 15 353 230 205 204 142 129 138 126 150 108 89 247 156 150 308 241 217 52 302 34 301 291 327 309 240 235 215 169 221 182 164 288 277 210 220 242 255 349 336 246 249 244 227 237 234 230 227 220 225
249 247 246 247 252 257 260 263 266 269 270 273 274 272 271 272 279 288 297 306 303 303 288 280 291 290 71 12 229 215 241 271 309 343 341 331 5 23 23 13 251 193 203 125 124 137 132 157 112 109 148 112 144 246 141 59 37 301 6 234 295 341 309 263 252 142 159 185 167 152 291 269 233 238 250 273 321 295 275 261 248 238 241 236 231 227 232 230
251 251 249 250 253 256 262 265 267 270 273 275 273 271 270 269 273 281 296 300 297 289 266 249 258 215 99 258 233 191 217 227 9 1 2 357 26 32 29 22 9 184 190 119 115 114 122 138 112 104 99 90 157 284 26 6 23 331 290 256 307 316 281 291 353 136 155 185 144 138 250 266 269 264 261 280 278 238 254 263 255 248 244 236 231 225 235 233
251 253 252 252 253 255 260 264 268 272 273 271 269 271 271 265 263 281 296 298 300 275 230 224 228 153 65 279 233 183 210 180 16 9 19 23 59 39 18 21 40 130 155 127 111 108 114 119 100 94 81 33 51 42 2 346 5 24 269 292 325 197 263 304 269 156 159 281 127 139 233 271 278 279 279 315 335 186 234 263 263 256 250 240 235 224 234 239
247 250 252 253 256 261 264 269 273 273 269 266 264 266 261 253 264 287 294 295 309 209 177 196 210 172 54 287 203 174 200 29 4 10 22 31 70 40 5 28 57 98 125 112 108 106 89 80 76 107 120 56 66 75 24 350 337 340 205 253 271 193 274 318 297 189 171 98 215 199 244 278 276 281 294 5 64 134 255 268 263 257 254 244 239 230 231 240
248 250 255 260 269 274 275 275 274 271 267 263 257 247 240 247 267 289 284 224 141 171 171 185 191 175 283 247 159 254 323 5 359 5 17 36 47 15 13 87 69 82 103 92 96 89 45 48 73 196 64 54 92 94 56 307 286 305 276 244 252 211 260 307 303 288 127 163 239 227 239 259 266 275 284 292 314 311 278 269 264 258 254 247 242 239 235 233
256 260 265 274 279 277 277 275 276 274 268 260 238 219 226 245 236 189 168 177 150 133 197 239 155 152 254 200 180 274 316 334 348 1 2 29 7 6 42 95 70 67 70 53 53 51 20 33 65 19 17 28 86 106 146 226 220 223 217 225 285 290 255 262 281 275 150 202 252 248 254 258 267 274 275 275 274 269 265 265 267 263 256 252 245 243 240 235
261 267 271 277 277 276 278 278 278 268 255 242 208 194 216 253 223 221 171 147 169 160 230 237 158 155 218 230 234 215 263 316 360 24 19 16 336 24 69 64 60 74 67 39 20 27 57 51 63 106 262 234 191 170 184 201 173 166 187 178 241 287 278 253 264 253 175 220 257 239 250 263 272 278 277 274 251 244 257 264 269 267 261 255 247 245 240 234
260 265 269 275 276 277 276 270 264 253 239 209 187 171 177 192 15 306 280 155 185 175 196 218 165 156 274 285 308 299 257 127 136 69 29 7 11 96 64 27 32 49 67 126 114 351 82 92 196 210 216 213 214 206 193 196 174 162 200 229 247 255 282 273 271 292 190 219 257 239 251 266 271 275 278 280 263 248 255 262 267 265 262 254 246 247 241 235
250 256 263 268 270 269 261 252 246 236 217 190 178 159 175 175 91 327 271 273 211 129 66 247 164 123 290 306 342 352 24 36 349 36 26 3 58 111 7 16 49 41 338 161 142 15 69 136 234 227 210 203 220 217 196 207 208 217 239 274 286 242 263 267 248 299 338 157 270 278 285 276 270 273 276 280 271 260 252 252 262 262 261 258 246 248 246 242
243 244 246 252 258 255 245 237 230 216 198 186 182 181 210 178 130 125 164 283 273 66 43 2 46 349 329 343 342 32 74 26 325 310 2 7 36 157 261 55 91 147 338 63 91 17 32 231 246 239 209 192 319 219 172 196 193 197 195 259 287 257 278 288 286 319 348 166 281 310 307 284 276 273 273 272 264 262 254 239 250 259 264 262 248 246 249 249
232 232 231 242 244 232 226 220 212 202 192 189 191 200 213 166 136 78 75 95 286 353 44 35 52 305 319 323 224 112 108 172 277 301 345 17 41 149 129 86 92 120 35 93 133 102 68 255 251 240 148 165 280 342 131 152 211 204 174 186 267 276 308 282 295 323 309 228 278 306 300 284 283 283 279 271 253 260 270 249 248 250 253 259 257 250 240 237
223 225 230 240 230 208 204 205 203 200 198 200 211 218 203 177 175 21 60 58 303 327 31 260 190 183 221 238 127 117 138 199 194 288 347 50 125 97 131 129 101 105 248 169 144 163 222 253 240 91 71 144 205 291 146 165 277 270 197 194 236 250 221 231 285 320 320 319 321 318 303 285 300 326 298 291 280 276 290 291 278 258 248 262 273 264 242 231
217 224 232 234 215 194 188 195 204 199 195 202 225 228 217 220 241 216 100 45 322 310 333 272 222 172 185 151 118 145 162 260 212 249 344 50 147 124 107 144 114 183 226 150 129 206 248 259 109 123 81 109 175 245 214 177 223 303 237 198 196 187 203 272 328 347 1 344 334 12 345 291 302 317 284 296 326 305 298 302 288 277 269 271 268 263 255 245
213 218 226 225 200 181 173 187 201 185 187 213 231 225 221 235 232 179 115 49 318 285 311 196 287 184 201 19 35 96 60 313 288 300 356 27 153 122 132 246 31 200 188 137 143 223 249 341 76 137 147 118 157 250 240 170 130 300 254 174 158 146 140 20 7 18 2 278 285 61 85 270 296 295 266 285 315 305 304 303 286 282 283 268 255 260 259 251
219 216 216 214 188 175 167 156 173 168 179 228 220 213 216 208 186 167 89 30 324 260 149 221 347 133 186 310 28 91 84 297 345 346 353 49 347 56 128 226 93 216 183 125 209 253 144 79 59 109 119 130 189 248 238 150 124 240 230 133 126 129 147 146 90 94 233 273 311 27 128 252 293 277 259 298 311 310 317 312 301 302 291 275 262 257 253 244
229 225 212 204 187 182 181 161 170 179 198 201 207 220 208 173 169 148 81 50 316 148 154 239 134 140 166 181 108 116 213 257 65 287 290 62 20 56 55 224 176 192 196 130 217 264 141 158 186 152 120 172 213 223 201 138 122 235 198 132 122 125 143 137 113 171 280 342 315 286 144 208 279 274 290 322 307 306 307 290 288 300 303 299 282 262 254 249
241 233 212 196 187 186 190 186 190 202 205 200 263 208 175 167 173 81 75 160 274 126 175 144 139 172 19 69 81 81 194 297 124 235 285 69 50 67 149 210 148 144 177 133 199 247 191 199 197 157 149 212 222 209 166 128 134 206 140 100 60 71 86 86 103 134 22 356 256 227 182 191 275 281 299 328 278 271 277 275 271 276 290 295 283 271 267 262
248 231 203 187 184 185 192 214 220 208 208 282 172 151 145 153 104 55 36 272 346 339 310 53 198 326 45 55 340 338 46 283 281 6 12 72 23 34 118 164 105 110 359 23 170 226 289 265 204 157 173 193 169 161 158 132 159 138 109 73 35 32 43 52 62 89 66 302 257 233 203 164 287 280 269 240 230 226 244 287 290 290 300 296 281 271 267 266
247 233 194 180 182 187 190 233 229 210 225 198 143 133 113 47 62 83 263 282 19 337 342 350 330 17 72 102 296 311 29 316 323 61 55 29 36 35 68 99 88 77 354 339 298 269 318 312 229 226 177 132 103 70 29 42 58 96 101 76 31 351 12 29 357 39 98 252 266 253 199 150 223 265 259 248 256 235 218 269 284 287 293 290 285 277 258 257
245 235 195 183 186 192 191 211 228 202 195 160 139 108 71 47 31 159 253 334 14 265 250 265 290 343 116 29 266 248 194 295 329 91 148 146 134 189 182 172 171 56 318 258 251 294 268 221 256 324 167 137 110 81 22 1 26 79 98 77 53 341 358 351 308 328 204 244 271 284 162 180 235 258 264 267 272 261 233 240 257 266 270 273 285 288 267 252
234 228 199 191 189 195 197 201 360 174 167 151 126 57 70 85 240 220 236 318 244 231 139 95 347 143 121 92 263 244 157 240 248 92 176 140 222 256 245 207 177 170 261 217 221 308 295 295 336 37 281 160 133 136 164 280 96 135 152 124 118 114 66 285 275 280 260 258 272 282 273 264 269 264 251 251 263 266 252 241 241 246 251 259 278 289 282 263
215 209 205 201 197 199 199 211 261 163 158 140 90 61 84 129 233 202 230 246 230 346 33 98 76 53 104 188 251 217 164 244 166 123 130 88 358 271 257 233 190 147 122 164 220 194 248 301 273 159 273 46 159 176 171 161 147 177 173 131 139 155 153 226 241 223 249 281 296 293 279 210 223 265 249 235 253 271 267 259 256 253 251 260 285 291 283 267
190 186 196 201 205 208 205 216 206 166 158 119 61 84 138 229 240 194 227 232 213 47 307 104 100 92 292 272 283 250 187 249 114 115 167 174 193 215 217 217 194 160 127 161 235 161 169 263 289 10 181 137 193 236 158 117 131 205 152 109 167 188 152 188 207 188 199 309 296 265 243 221 215 282 285 275 277 279 275 277 280 272 277 305 303 283 270 260
174 173 178 194 206 210 210 214 188 172 163 89 69 115 196 224 215 182 201 183 140 151 150 13 79 126 279 293 302 310 307 234 118 110 228 208 208 212 219 223 193 183 166 159 206 156 140 276 314 4 285 157 190 233 181 133 178 169 124 172 227 187 116 116 248 325 69 236 272 243 253 283 317 293 290 317 329 308 308 308 283 268 288 314 289 269 259 251
174 171 188 201 196 201 208 200 175 170 133 83 113 211 218 221 198 180 187 131 127 132 113 30 265 175 231 273 273 257 181 257 181 141 245 238 234 211 215 251 202 195 191 162 213 198 151 268 304 51 208 257 234 200 297 269 158 121 171 227 238 130 79 89 238 342 28 233 274 275 241 277 317 286 301 339 329 303 302 305 300 289 284 278 268 262 254 244
175 168 235 215 189 194 191 176 167 154 78 84 177 240 212 209 199 167 169 147 124 98 104 191 229 180 188 206 258 219 161 206 205 180 228 241 248 205 185 218 184 213 216 157 237 271 134 251 300 37 210 294 353 63 294 303 105 119 199 229 110 144 131 79 151 242 287 264 284 294 278 259 230 241 290 296 278 276 287 297 309 296 262 247 257 262 261 254
178 153 306 203 182 179 161 162 158 101 69 133 215 245 215 230 248 205 185 160 122 112 156 219 215 112 188 179 193 198 181 199 188 191 233 207 254 230 179 195 119 348 317 141 178 241 100 157 285 313 272 306 13 111 218 224 58 32 334 331 6 173 174 159 167 167 189 252 281 305 314 258 228 220 236 264 261 253 268 282 291 280 257 242 246 252 256 248
176 102 311 187 155 156 153 149 123 80 103 185 203 217 244 262 263 259 257 213 148 149 199 209 164 172 214 199 206 200 178 192 174 177 239 217 254 272 250 148 140 156 342 49 138 226 70 137 255 301 321 290 228 216 198 183 163 126 234 271 256 194 163 191 243 143 140 189 219 282 289 255 244 228 219 252 262 243 241 257 267 270 266 257 249 246 251 246
122 95 267 137 139 157 144 122 106 132 158 206 204 212 244 226 178 284 314 331 184 248 180 174 174 183 190 197 231 197 158 183 183 189 240 226 230 254 241 132 150 160 102 60 93 221 156 163 199 248 290 224 234 246 200 179 173 158 184 208 186 170 135 138 273 279 121 179 181 197 269 262 247 229 223 243 258 251 237 240 257 269 268 266 264 253 247 247
97 148 246 86 157 166 131 104 224 137 142 212 217 201 201 136 138 209 316 19 9 245 46 128 186 185 184 192 211 181 161 186 196 195 227 220 212 218 200 140 163 150 123 136 229 218 155 119 140 226 227 219 249 272 200 161 156 150 198 209 167 153 135 149 225 260 244 229 175 156 258 270 262 249 238 241 258 271 250 219 239 266 266 268 275 269 259 252
125 186 218 69 175 167 105 93 261 287 221 244 259 186 107 101 134 167 209 208 212 172 96 266 204 196 219 204 167 179 191 195 189 194 221 228 227 235 240 29 180 138 116 155 218 191 138 123 165 276 290 303 303 317 357 106 112 172 235 196 163 173 168 167 182 182 194 214 172 185 261 267 271 266 257 252 261 277 267 220 221 255 271 275 275 275 271 261
149 181 119 69 180 166 120 176 205 228 240 274 349 278 308 215 175 168 198 214 204 163 168 227 212 203 218 158 135 192 209 203 202 213 218 213 233 312 355 327 261 165 145 195 179 163 208 171 128 316 324 334 338 348 337 315 216 221 238 200 190 186 144 129 166 155 230 226 188 201 261 259 266 283 284 281 278 276 269 238 213 236 263 271 273 277 275 271
118 125 334 348 110 127 163 180 156 175 205 166 230 241 228 233 210 173 188 217 205 170 176 247 226 134 111 113 101 219 220 213 229 243 238 216 250 326 6 330 305 214 241 271 326 182 218 180 140 152 216 253 268 270 257 243 199 221 240 204 205 195 171 168 164 152 233 237 184 189 252 256 269 288 281 277 277 275 271 258 234 236 255 266 275 280 280 281
134 141 308 334 7 72 205 190 111 133 166 153 217 244 189 202 272 206 179 212 202 169 177 294 164 92 80 137 188 250 248 257 329 319 257 234 255 298 307 339 35 192 229 250 32 66 99 216 209 191 206 220 228 236 213 139 131 198 223 210 202 207 198 169 117 161 200 222 191 216 246 260 277 283 278 277 276 274 273 270 263 254 255 262 268 272 274 273
157 182 176 161 339 275 265 311 125 155 186 170 185 216 187 197 267 5 193 227 234 165 186 297 161 164 180 174 184 244 249 317 2 293 229 231 254 294 290 15 68 330 269 222 161 103 98 264 238 206 227 242 247 251 194 131 188 198 200 219 206 203 193 169 197 219 160 94 248 235 241 258 268 269 273 278 278 277 276 277 276 261 250 251 261 270 273 272
183 206 183 162 187 206 216 230 198 194 203 183 184 198 177 178 185 191 210 259 342 222 189 230 237 211 200 174 161 199 201 46 287 248 224 225 245 295 327 248 224 331 5 359 321 106 130 246 240 193 238 257 259 251 195 186 227 187 186 225 212 190 183 188 220 231 194 219 252 254 247 253 257 258 263 268 270 273 279 283 281 267 264 265 267 272 274 274
143 212 236 144 178 202 209 198 173 185 199 189 195 208 182 184 199 210 175 100 323 254 193 210 245 226 208 179 162 186 187 176 233 239 207 188 198 187 244 227 238 358 55 136 301 132 159 240 247 187 246 265 263 249 208 204 226 206 209 230 221 201 198 200 222 233 226 236 255 266 263 261 263 261 259 262 266 273 283 288 284 278 281 277 267 271 274 274
160 199 194 94 84 198 176 65 131 172 201 195 215 227 193 190 204 215 174 157 192 240 176 211 236 221 194 187 191 214 204 190 214 228 179 169 196 196 214 210 165 52 39 134 260 274 213 249 260 104 281 276 274 267 223 212 226 229 239 247 239 225 214 216 231 237 238 247 252 255 262 268 265 260 258 262 271 279 281 279 280 280 277 269 263 265 267 268
254 301 146 126 163 184 146 96 116 146 191 204 210 218 205 207 203 196 216 206 192 179 177 203 219 194 155 189 212 229 223 206 217 214 174 171 190 196 215 197 143 134 157 176 146 123 190 255 355 65 307 274 296 343 332 343 281 247 256 251 240 228 215 220 226 221 219 234 245 252 261 261 256 257 262 262 262 266 268 271 279 278 265 255 254 258 258 258
206 317 8 118 187 206 161 136 130 159 206 205 198 204 214 221 198 171 206 247 212 197 191 187 178 139 144 200 218 228 227 215 213 203 174 163 148 167 206 184 152 145 156 170 161 145 165 182 221 121 209 266 292 348 18 19 347 265 229 225 228 227 225 232 239 228 218 221 233 241 239 243 252 261 272 266 256 254 256 258 262 264 260 249 238 244 253 254